| time (UTC) | temp F | wind direction | speed MPH | gust MPH | rain 1hr in | rain 24hr in | rain mn in | humidity % | barometer mb |
| 20260507084506 | 54 | 240 | 0.0 | 1.0 | 0.00 | 0.00 | 0.00 | 47 | 1016.2 |
| 20260507083736 | 54 | 240 | 0.0 | 4.0 | 0.00 | 0.00 | 0.00 | 47 | 1016.0 |
| 20260507083230 | 55 | 240 | 0.0 | 6.0 | 0.00 | 0.00 | 0.00 | 45 | 1016.0 |
| 20260507082721 | 55 | 230 | 0.0 | 6.0 | 0.00 | 0.00 | 0.00 | 45 | 1015.9 |
| 20260507082210 | 54 | 44 | 0.0 | 8.0 | 0.00 | 0.00 | 0.00 | 46 | 1015.9 |
| 20260507081704 | 55 | 58 | 0.0 | 8.0 | 0.00 | 0.00 | 0.00 | 45 | 1015.8 |
| 20260507081158 | 55 | 249 | 0.0 | 3.0 | 0.00 | 0.00 | 0.00 | 45 | 1015.4 |
| 20260507081130 | 55 | 282 | 0.0 | 3.0 | 0.00 | 0.00 | 0.00 | 45 | 1015.3 |
| 20260507080142 | 55 | 277 | 0.0 | 1.0 | 0.00 | 0.00 | 0.00 | 45 | 1015.2 |
| 20260507075642 | 55 | 276 | 0.0 | 2.0 | 0.00 | 0.00 | 0.00 | 45 | 1015.2 |
| 20260507075410 | 55 | 276 | 0.0 | 2.0 | 0.00 | 0.00 | 0.00 | 44 | 1015.1 |
| 20260507074627 | 55 | 282 | 0.0 | 3.0 | 0.00 | 0.00 | 0.00 | 43 | 1015.0 |
| 20260507074326 | 55 | 282 | 0.0 | 4.0 | 0.00 | 0.00 | 0.00 | 43 | 1014.9 |
| 20260507073602 | 56 | 270 | 0.0 | 4.0 | 0.00 | 0.00 | 0.00 | 43 | 1014.9 |
| 20260507073058 | 56 | 238 | 1.0 | 4.0 | 0.00 | 0.00 | 0.00 | 42 | 1014.8 |
| 20260507072540 | 56 | 242 | 1.0 | 5.0 | 0.00 | 0.00 | 0.00 | 42 | 1014.8 |
| 20260507072030 | 56 | 215 | 1.0 | 5.0 | 0.00 | 0.00 | 0.00 | 42 | 1014.9 |
| 20260507071742 | 56 | 226 | 1.0 | 6.0 | 0.00 | 0.00 | 0.00 | 42 | 1014.9 |
| 20260507071020 | 56 | 223 | 1.0 | 6.0 | 0.00 | 0.00 | 0.00 | 42 | 1014.8 |
| 20260507070950 | 56 | 234 | 0.0 | 5.0 | 0.00 | 0.00 | 0.00 | 43 | 1014.8 |
| 20260507070010 | 56 | 229 | 0.0 | 5.0 | 0.00 | 0.00 | 0.00 | 43 | 1014.7 |
| 20260507065504 | 57 | 231 | 0.0 | 4.0 | 0.00 | 0.00 | 0.00 | 42 | 1014.7 |
| 20260507065159 | 57 | 240 | 0.0 | 4.0 | 0.00 | 0.00 | 0.00 | 42 | 1014.6 |
| 20260507064432 | 57 | 240 | 1.0 | 8.0 | 0.00 | 0.00 | 0.00 | 42 | 1014.5 |
| 20260507063924 | 57 | 240 | 0.0 | 8.0 | 0.00 | 0.00 | 0.00 | 41 | 1014.4 |
| 20260507063417 | 57 | 244 | 0.0 | 5.0 | 0.00 | 0.00 | 0.00 | 40 | 1014.4 |
| 20260507062910 | 58 | 231 | 1.0 | 6.0 | 0.00 | 0.00 | 0.00 | 40 | 1014.3 |
| 20260507062406 | 58 | 231 | 1.0 | 6.0 | 0.00 | 0.00 | 0.00 | 38 | 1014.2 |
| 20260507061850 | 58 | 220 | 1.0 | 5.0 | 0.00 | 0.00 | 0.00 | 39 | 1014.1 |
| 20260507061340 | 58 | 214 | 1.0 | 9.0 | 0.00 | 0.00 | 0.00 | 39 | 1014.0 |
| 20260507061031 | 58 | 238 | 1.0 | 8.0 | 0.00 | 0.00 | 0.00 | 39 | 1013.9 |
| 20260507060911 | 58 | 213 | 1.0 | 9.0 | 0.00 | 0.00 | 0.00 | 39 | 1013.9 |
| 20260507055811 | 58 | 238 | 0.0 | 6.0 | 0.00 | 0.00 | 0.00 | 39 | 1013.8 |
| 20260507055300 | 59 | 230 | 1.0 | 8.0 | 0.00 | 0.00 | 0.00 | 39 | 1013.9 |
| 20260507054754 | 59 | 225 | 2.0 | 12.0 | 0.00 | 0.00 | 0.00 | 37 | 1014.0 |
| 20260507054245 | 59 | 234 | 1.0 | 12.0 | 0.00 | 0.00 | 0.00 | 38 | 1013.9 |
| 20260507053741 | 59 | 238 | 1.0 | 9.0 | 0.00 | 0.00 | 0.00 | 37 | 1013.8 |
| 20260507053232 | 60 | 243 | 1.0 | 9.0 | 0.00 | 0.00 | 0.00 | 37 | 1013.9 |
| 20260507052726 | 60 | 202 | 1.0 | 8.0 | 0.00 | 0.00 | 0.00 | 37 | 1013.7 |
| 20260507052436 | 60 | 206 | 1.0 | 7.0 | 0.00 | 0.00 | 0.00 | 37 | 1013.7 |
| 20260507051706 | 60 | 236 | 1.0 | 7.0 | 0.00 | 0.00 | 0.00 | 36 | 1013.5 |
| 20260507051156 | 60 | 227 | 1.0 | 6.0 | 0.00 | 0.00 | 0.00 | 35 | 1013.6 |
| 20260507050648 | 60 | 232 | 1.0 | 7.0 | 0.00 | 0.00 | 0.00 | 35 | 1013.4 |
| 20260507050138 | 60 | 240 | 1.0 | 7.0 | 0.00 | 0.00 | 0.00 | 34 | 1013.4 |
| 20260507045638 | 60 | 221 | 1.0 | 7.0 | 0.00 | 0.00 | 0.00 | 35 | 1013.3 |
| 20260507045137 | 61 | 233 | 1.0 | 7.0 | 0.00 | 0.00 | 0.00 | 33 | 1013.3 |
| 20260507044636 | 61 | 252 | 1.0 | 7.0 | 0.00 | 0.00 | 0.00 | 33 | 1013.3 |
| 20260507044138 | 61 | 58 | 1.0 | 7.0 | 0.00 | 0.00 | 0.00 | 33 | 1013.2 |
| 20260507043905 | 61 | 209 | 1.0 | 7.0 | 0.00 | 0.00 | 0.00 | 33 | 1013.2 |
| 20260507043401 | 62 | 287 | 1.0 | 7.0 | 0.00 | 0.00 | 0.00 | 34 | 1013.1 |
| 20260507042626 | 62 | 232 | 1.0 | 8.0 | 0.00 | 0.00 | 0.00 | 32 | 1013.1 |
| 20260507042128 | 62 | 237 | 1.0 | 8.0 | 0.00 | 0.00 | 0.00 | 32 | 1012.9 |
| 20260507041857 | 62 | 228 | 1.0 | 5.0 | 0.00 | 0.00 | 0.00 | 32 | 1012.9 |
| 20260507041127 | 62 | 288 | 1.0 | 5.0 | 0.00 | 0.00 | 0.00 | 34 | 1012.6 |
| 20260507040626 | 61 | 276 | 1.0 | 8.0 | 0.00 | 0.00 | 0.00 | 32 | 1012.6 |
| 20260507040114 | 62 | 265 | 2.0 | 8.0 | 0.00 | 0.00 | 0.00 | 30 | 1012.5 |
| 20260507035609 | 62 | 315 | 1.0 | 8.0 | 0.00 | 0.00 | 0.00 | 30 | 1012.6 |
| 20260507035107 | 62 | 267 | 1.0 | 8.0 | 0.00 | 0.00 | 0.00 | 31 | 1012.6 |
| 20260507034556 | 62 | 204 | 1.0 | 5.0 | 0.00 | 0.00 | 0.00 | 32 | 1012.5 |
| 20260507034040 | 62 | 203 | 1.0 | 6.0 | 0.00 | 0.00 | 0.00 | 32 | 1012.6 |
| 20260507033528 | 62 | 261 | 1.0 | 6.0 | 0.00 | 0.00 | 0.00 | 31 | 1012.5 |
| 20260507033012 | 62 | 237 | 1.0 | 10.0 | 0.00 | 0.00 | 0.00 | 31 | 1012.5 |
| 20260507032507 | 62 | 228 | 1.0 | 10.0 | 0.00 | 0.00 | 0.00 | 29 | 1012.5 |
| 20260507032226 | 62 | 227 | 1.0 | 8.0 | 0.00 | 0.00 | 0.00 | 28 | 1012.4 |
| 20260507031719 | 62 | 221 | 1.0 | 8.0 | 0.00 | 0.00 | 0.00 | 31 | 1012.4 |
| 20260507030956 | 62 | 288 | 1.0 | 7.0 | 0.00 | 0.00 | 0.00 | 29 | 1012.4 |
| 20260507030453 | 63 | 149 | 0.0 | 7.0 | 0.00 | 0.00 | 0.00 | 31 | 1012.4 |
| 20260507025956 | 63 | 239 | 0.0 | 7.0 | 0.00 | 0.00 | 0.00 | 31 | 1012.3 |
| 20260507025456 | 63 | 218 | 1.0 | 6.0 | 0.00 | 0.00 | 0.00 | 33 | 1012.2 |
| 20260507024955 | 62 | 218 | 1.0 | 7.0 | 0.00 | 0.00 | 0.00 | 31 | 1012.2 |
| 20260507024443 | 62 | 215 | 1.0 | 7.0 | 0.00 | 0.00 | 0.00 | 30 | 1012.2 |
| 20260507023941 | 63 | 225 | 1.0 | 6.0 | 0.00 | 0.00 | 0.00 | 32 | 1012.5 |
| 20260507023432 | 62 | 232 | 1.0 | 6.0 | 0.00 | 0.00 | 0.00 | 31 | 1012.5 |
| 20260507023148 | 62 | 183 | 1.0 | 6.0 | 0.00 | 0.00 | 0.00 | 31 | 1012.6 |
| 20260507022419 | 63 | 207 | 1.0 | 7.0 | 0.00 | 0.00 | 0.00 | 33 | 1012.9 |
| 20260507021910 | 63 | 230 | 0.0 | 7.0 | 0.00 | 0.00 | 0.00 | 32 | 1012.8 |
| 20260507021411 | 62 | 250 | 1.0 | 9.0 | 0.00 | 0.00 | 0.00 | 34 | 1012.7 |
| 20260507020854 | 62 | 218 | 1.0 | 9.0 | 0.00 | 0.00 | 0.00 | 32 | 1012.7 |
| 20260507020343 | 63 | 244 | 1.0 | 8.0 | 0.00 | 0.00 | 0.00 | 33 | 1012.8 |
| 20260507015833 | 63 | 232 | 1.0 | 9.0 | 0.00 | 0.00 | 0.00 | 31 | 1012.8 |
| 20260507015327 | 63 | 229 | 1.0 | 12.0 | 0.00 | 0.00 | 0.00 | 32 | 1012.7 |
| 20260507014821 | 63 | 109 | 1.0 | 12.0 | 0.00 | 0.00 | 0.00 | 37 | 1012.7 |
| 20260507014311 | 63 | 212 | 1.0 | 7.0 | 0.00 | 0.00 | 0.00 | 44 | 1012.5 |
| 20260507013801 | 62 | 232 | 1.0 | 10.0 | 0.00 | 0.00 | 0.00 | 49 | 1012.6 |
| 20260507013252 | 62 | 250 | 1.0 | 10.0 | 0.00 | 0.00 | 0.00 | 50 | 1012.5 |
| 20260507012741 | 62 | 241 | 1.0 | 6.0 | 0.00 | 0.00 | 0.00 | 53 | 1012.5 |
| 20260507012231 | 60 | 223 | 0.0 | 4.0 | 0.00 | 0.00 | 0.00 | 58 | 1012.6 |
| 20260507011721 | 59 | 222 | 0.0 | 5.0 | 0.00 | 0.00 | 0.00 | 59 | 1012.6 |
| 20260507011438 | 59 | 222 | 1.0 | 6.0 | 0.00 | 0.00 | 0.00 | 59 | 1012.6 |
| 20260507010705 | 59 | 248 | 1.0 | 6.0 | 0.00 | 0.00 | 0.00 | 59 | 1012.6 |
| 20260507010155 | 59 | 200 | 1.0 | 9.0 | 0.00 | 0.00 | 0.00 | 60 | 1012.6 |
| 20260507010127 | 59 | 262 | 1.0 | 9.0 | 0.00 | 0.00 | 0.00 | 60 | 1012.6 |
| 20260507005136 | 60 | 230 | 1.0 | 7.0 | 0.00 | 0.00 | 0.00 | 58 | 1012.6 |
| 20260507004629 | 62 | 139 | 0.0 | 5.0 | 0.00 | 0.00 | 0.00 | 58 | 1012.7 |
| 20260507004611 | 63 | 300 | 0.0 | 2.0 | 0.00 | 0.00 | 0.00 | 60 | 1012.2 |
| 20260507003617 | 64 | 300 | 0.0 | 2.0 | 0.00 | 0.00 | 0.00 | 59 | 1012.0 |
| 20260507003103 | 65 | 300 | 0.0 | 2.0 | 0.00 | 0.00 | 0.00 | 57 | 1012.0 |
| 20260507002603 | 66 | 300 | 0.0 | 4.0 | 0.00 | 0.00 | 0.00 | 57 | 1012.1 |
| 20260507002055 | 67 | 300 | 0.0 | 4.0 | 0.00 | 0.00 | 0.00 | 54 | 1012.1 |
| 20260507001541 | 67 | 300 | 0.0 | 2.0 | 0.00 | 0.00 | 0.00 | 55 | 1012.1 |
| 20260507001250 | 66 | 302 | 0.0 | 0.0 | 0.00 | 0.00 | 0.00 | 54 | 1012.1 |
| 20260507000520 | 65 | 302 | 0.0 | 0.0 | 0.00 | 0.00 | 0.00 | 58 | 1012.0 |
| 20260507000010 | 65 | 302 | 0.0 | 0.0 | 0.00 | 0.00 | 0.00 | 60 | 1012.1 |
| 20260506235505 | 64 | 302 | 0.0 | 2.0 | 0.00 | 0.00 | 0.00 | 62 | 1012.1 |
| 20260506235222 | 64 | 302 | 0.0 | 2.0 | 0.00 | 0.00 | 0.00 | 61 | 1012.1 |
| 20260506234445 | 64 | 303 | 0.0 | 4.0 | 0.00 | 0.00 | 0.00 | 62 | 1012.0 |
| 20260506233935 | 63 | 303 | 1.0 | 4.0 | 0.00 | 0.00 | 0.00 | 59 | 1012.0 |
| 20260506233431 | 63 | 306 | 0.0 | 3.0 | 0.00 | 0.00 | 0.00 | 59 | 1012.1 |
| 20260506232931 | 63 | 308 | 0.0 | 2.0 | 0.00 | 0.00 | 0.00 | 60 | 1012.0 |
| 20260506232650 | 64 | 311 | 0.0 | 4.0 | 0.00 | 0.00 | 0.00 | 62 | 1012.1 |
| 20260506231916 | 63 | 311 | 0.0 | 4.0 | 0.00 | 0.00 | 0.00 | 62 | 1012.1 |
| 20260506231417 | 62 | 313 | 0.0 | 2.0 | 0.00 | 0.00 | 0.00 | 62 | 1012.0 |
| 20260506230917 | 62 | 313 | 0.0 | 2.0 | 0.00 | 0.00 | 0.00 | 63 | 1012.1 |
| 20260506230413 | 62 | 315 | 0.0 | 3.0 | 0.00 | 0.00 | 0.00 | 63 | 1012.0 |
| 20260506225911 | 61 | 316 | 0.0 | 3.0 | 0.00 | 0.00 | 0.00 | 64 | 1012.1 |
| 20260506225405 | 61 | 323 | 0.0 | 2.0 | 0.00 | 0.00 | 0.00 | 63 | 1012.1 |
| 20260506225126 | 61 | 355 | 0.0 | 2.0 | 0.00 | 0.00 | 0.00 | 63 | 1012.0 |
| 20260506224357 | 60 | 5 | 0.0 | 2.0 | 0.00 | 0.00 | 0.00 | 64 | 1012.0 |
| 20260506223849 | 60 | 5 | 0.0 | 2.0 | 0.00 | 0.00 | 0.00 | 64 | 1012.0 |
| 20260506223349 | 60 | 5 | 0.0 | 1.0 | 0.00 | 0.00 | 0.00 | 65 | 1012.0 |
| 20260506222838 | 60 | 5 | 0.0 | 2.0 | 0.00 | 0.00 | 0.00 | 65 | 1012.0 |
| 20260506222338 | 59 | 5 | 0.0 | 2.0 | 0.00 | 0.00 | 0.00 | 66 | 1012.0 |
| 20260506221831 | 59 | 88 | 0.0 | 2.0 | 0.00 | 0.00 | 0.00 | 66 | 1012.0 |
| 20260506221323 | 58 | 88 | 0.0 | 2.0 | 0.00 | 0.00 | 0.00 | 68 | 1012.0 |
| 20260506220818 | 58 | 88 | 0.0 | 1.0 | 0.00 | 0.00 | 0.00 | 69 | 1011.9 |
| 20260506220301 | 57 | 88 | 0.0 | 1.0 | 0.00 | 0.00 | 0.00 | 72 | 1011.8 |
| 20260506215757 | 56 | 88 | 0.0 | 0.0 | 0.00 | 0.00 | 0.00 | 75 | 1011.8 |
| 20260506215257 | 55 | 88 | 0.0 | 0.0 | 0.00 | 0.00 | 0.00 | 78 | 1011.8 |
| 20260506214739 | 55 | 88 | 0.0 | 0.0 | 0.00 | 0.00 | 0.00 | 79 | 1011.8 |
| 20260506214714 | 55 | 88 | 0.0 | 0.0 | 0.00 | 0.00 | 0.00 | 80 | 1011.7 |
| 20260506213724 | 53 | 88 | 0.0 | 0.0 | 0.00 | 0.00 | 0.00 | 86 | 1011.6 |
| 20260506213222 | 51 | 88 | 0.0 | 0.0 | 0.00 | 0.00 | 0.00 | 90 | 1011.6 |
| 20260506212659 | 50 | 88 | 0.0 | 0.0 | 0.00 | 0.00 | 0.00 | 90 | 1011.6 |
| 20260506212144 | 50 | 88 | 0.0 | 0.0 | 0.00 | 0.00 | 0.00 | 90 | 1011.4 |
| 20260506211634 | 50 | 88 | 0.0 | 0.0 | 0.00 | 0.00 | 0.00 | 90 | 1011.4 |
| 20260506211130 | 50 | 88 | 0.0 | 0.0 | 0.00 | 0.00 | 0.00 | 90 | 1011.4 |
| 20260506210603 | 49 | 88 | 0.0 | 0.0 | 0.00 | 0.00 | 0.00 | 90 | 1011.4 |
| 20260506210042 | 49 | 88 | 0.0 | 0.0 | 0.00 | 0.00 | 0.00 | 90 | 1011.4 |
| 20260506205532 | 49 | 88 | 0.0 | 0.0 | 0.00 | 0.00 | 0.00 | 90 | 1011.3 |
| 20260506205030 | 49 | 88 | 0.0 | 0.0 | 0.00 | 0.00 | 0.00 | 90 | 1011.3 |
| 20260506204508 | 49 | 88 | 0.0 | 0.0 | 0.00 | 0.00 | 0.00 | 90 | 1011.3 |
| 20260506203955 | 49 | 88 | 0.0 | 0.0 | 0.00 | 0.00 | 0.00 | 90 | 1011.3 |
| 20260506203431 | 49 | 88 | 0.0 | 0.0 | 0.00 | 0.00 | 0.00 | 90 | 1011.3 |
| 20260506202918 | 49 | 88 | 0.0 | 0.0 | 0.00 | 0.00 | 0.00 | 90 | 1011.2 |
| 20260506202411 | 49 | 88 | 0.0 | 0.0 | 0.00 | 0.00 | 0.00 | 90 | 1011.2 |
| 20260506201840 | 49 | 88 | 0.0 | 0.0 | 0.00 | 0.00 | 0.00 | 90 | 1011.3 |
| 20260506201559 | 49 | 88 | 0.0 | 0.0 | 0.00 | 0.00 | 0.00 | 90 | 1011.3 |
| 20260506200837 | 49 | 88 | 0.0 | 0.0 | 0.00 | 0.00 | 0.00 | 90 | 1011.2 |
| 20260506200320 | 49 | 88 | 0.0 | 0.0 | 0.00 | 0.00 | 0.00 | 90 | 1011.2 |
| 20260506200042 | 49 | 88 | 0.0 | 0.0 | 0.00 | 0.00 | 0.00 | 90 | 1011.2 |
| 20260506195238 | 50 | 88 | 0.0 | 0.0 | 0.00 | 0.00 | 0.00 | 90 | 1011.3 |
| 20260506195229 | 50 | 88 | 0.0 | 0.0 | 0.00 | 0.00 | 0.00 | 90 | 1011.5 |
| 20260506194227 | 50 | 88 | 0.0 | 0.0 | 0.00 | 0.00 | 0.00 | 90 | 1011.5 |
| 20260506193720 | 50 | 88 | 0.0 | 0.0 | 0.00 | 0.00 | 0.00 | 90 | 1011.4 |
| 20260506193439 | 50 | 88 | 0.0 | 0.0 | 0.00 | 0.00 | 0.00 | 90 | 1011.4 |
| 20260506193200 | 50 | 88 | 0.0 | 0.0 | 0.00 | 0.00 | 0.00 | 90 | 1011.4 |
| 20260506192849 | 50 | 88 | 0.0 | 0.0 | 0.00 | 0.00 | 0.00 | 90 | 1011.4 |
| 20260506191650 | 50 | 88 | 0.0 | 0.0 | 0.00 | 0.00 | 0.00 | 90 | 1011.3 |
| 20260506191140 | 51 | 88 | 0.0 | 0.0 | 0.00 | 0.00 | 0.00 | 90 | 1011.3 |
| 20260506190641 | 51 | 88 | 0.0 | 0.0 | 0.00 | 0.00 | 0.00 | 90 | 1011.2 |
| 20260506190142 | 51 | 88 | 0.0 | 0.0 | 0.00 | 0.00 | 0.00 | 89 | 1011.1 |
| 20260506185636 | 51 | 88 | 0.0 | 0.0 | 0.00 | 0.00 | 0.00 | 90 | 1011.0 |
| 20260506185104 | 51 | 88 | 0.0 | 0.0 | 0.00 | 0.00 | 0.00 | 90 | 1010.9 |
| 20260506184821 | 51 | 88 | 0.0 | 0.0 | 0.00 | 0.00 | 0.00 | 90 | 1010.8 |
| 20260506184100 | 51 | 88 | 0.0 | 0.0 | 0.00 | 0.00 | 0.00 | 90 | 1010.7 |
| 20260506183554 | 51 | 88 | 0.0 | 0.0 | 0.00 | 0.00 | 0.00 | 90 | 1010.6 |
| 20260506183044 | 52 | 88 | 0.0 | 0.0 | 0.00 | 0.00 | 0.00 | 90 | 1010.6 |
| 20260506182540 | 52 | 88 | 0.0 | 0.0 | 0.00 | 0.00 | 0.00 | 90 | 1010.6 |
| 20260506182036 | 52 | 88 | 0.0 | 0.0 | 0.00 | 0.00 | 0.00 | 90 | 1010.6 |
| 20260506181517 | 52 | 88 | 0.0 | 0.0 | 0.00 | 0.00 | 0.00 | 89 | 1010.6 |
| 20260506181240 | 52 | 88 | 0.0 | 0.0 | 0.00 | 0.00 | 0.00 | 89 | 1010.6 |
| 20260506180503 | 52 | 88 | 0.0 | 0.0 | 0.00 | 0.00 | 0.00 | 89 | 1010.6 |
| 20260506175950 | 52 | 88 | 0.0 | 0.0 | 0.00 | 0.00 | 0.00 | 89 | 1010.7 |
| 20260506175432 | 52 | 88 | 0.0 | 0.0 | 0.00 | 0.00 | 0.00 | 89 | 1010.7 |
| 20260506174922 | 53 | 88 | 0.0 | 0.0 | 0.00 | 0.00 | 0.00 | 89 | 1010.8 |
| 20260506174348 | 53 | 88 | 0.0 | 0.0 | 0.00 | 0.00 | 0.00 | 89 | 1010.8 |
| 20260506173846 | 53 | 88 | 0.0 | 0.0 | 0.00 | 0.00 | 0.00 | 89 | 1010.9 |
| 20260506173320 | 53 | 88 | 0.0 | 0.0 | 0.00 | 0.00 | 0.00 | 89 | 1010.9 |
| 20260506172818 | 53 | 88 | 0.0 | 0.0 | 0.00 | 0.00 | 0.00 | 89 | 1011.0 |
| 20260506172739 | 53 | 88 | 0.0 | 0.0 | 0.00 | 0.00 | 0.00 | 89 | 1010.9 |
| 20260506172001 | 54 | 88 | 0.0 | 0.0 | 0.00 | 0.00 | 0.00 | 89 | 1011.2 |
| 20260506171228 | 54 | 88 | 0.0 | 0.0 | 0.00 | 0.00 | 0.00 | 89 | 1011.1 |
| 20260506170646 | 54 | 88 | 0.0 | 0.0 | 0.00 | 0.00 | 0.00 | 89 | 1011.0 |
| 20260506170136 | 55 | 88 | 0.0 | 0.0 | 0.00 | 0.00 | 0.00 | 89 | 1011.0 |
| 20260506165626 | 55 | 88 | 0.0 | 0.0 | 0.00 | 0.00 | 0.00 | 89 | 1011.0 |
| 20260506165119 | 55 | 88 | 0.0 | 0.0 | 0.00 | 0.00 | 0.00 | 89 | 1011.1 |
| 20260506164600 | 55 | 88 | 0.0 | 0.0 | 0.00 | 0.00 | 0.00 | 89 | 1011.1 |
| 20260506164050 | 55 | 88 | 0.0 | 0.0 | 0.00 | 0.00 | 0.00 | 88 | 1011.3 |
| 20260506163540 | 55 | 88 | 0.0 | 0.0 | 0.00 | 0.00 | 0.00 | 88 | 1011.4 |
| 20260506163032 | 55 | 88 | 0.0 | 0.0 | 0.00 | 0.00 | 0.00 | 88 | 1011.6 |
| 20260506162455 | 56 | 88 | 0.0 | 0.0 | 0.00 | 0.00 | 0.00 | 88 | 1011.7 |
| 20260506161954 | 56 | 88 | 0.0 | 0.0 | 0.00 | 0.00 | 0.00 | 88 | 1011.7 |
| 20260506161713 | 56 | 88 | 0.0 | 0.0 | 0.00 | 0.00 | 0.00 | 88 | 1011.7 |
| 20260506160938 | 56 | 88 | 0.0 | 0.0 | 0.00 | 0.00 | 0.00 | 88 | 1011.6 |
| 20260506160700 | 56 | 88 | 0.0 | 0.0 | 0.00 | 0.00 | 0.00 | 88 | 1011.7 |
| 20260506160159 | 56 | 88 | 0.0 | 0.0 | 0.00 | 0.00 | 0.00 | 88 | 1011.8 |
| 20260506155438 | 56 | 88 | 0.0 | 0.0 | 0.00 | 0.00 | 0.00 | 88 | 1011.9 |
| 20260506154937 | 57 | 88 | 0.0 | 0.0 | 0.00 | 0.00 | 0.00 | 89 | 1011.9 |
| 20260506154416 | 57 | 88 | 0.0 | 0.0 | 0.00 | 0.00 | 0.00 | 88 | 1011.9 |
| 20260506154353 | 57 | 88 | 0.0 | 0.0 | 0.00 | 0.00 | 0.00 | 88 | 1011.9 |
| 20260506153357 | 57 | 88 | 0.0 | 0.0 | 0.00 | 0.00 | 0.00 | 88 | 1011.9 |
| 20260506152845 | 57 | 88 | 0.0 | 0.0 | 0.00 | 0.00 | 0.00 | 88 | 1011.9 |
| 20260506152335 | 57 | 88 | 0.0 | 0.0 | 0.00 | 0.00 | 0.00 | 89 | 1011.9 |
| 20260506151827 | 58 | 88 | 0.0 | 0.0 | 0.00 | 0.00 | 0.00 | 88 | 1012.0 |
| 20260506151523 | 58 | 88 | 0.0 | 0.0 | 0.00 | 0.00 | 0.00 | 88 | 1012.3 |
| 20260506150741 | 58 | 88 | 0.0 | 0.0 | 0.00 | 0.00 | 0.00 | 88 | 1012.2 |
| 20260506150237 | 58 | 88 | 0.0 | 0.0 | 0.00 | 0.00 | 0.00 | 89 | 1012.2 |
| 20260506145728 | 58 | 88 | 0.0 | 0.0 | 0.00 | 0.00 | 0.00 | 89 | 1012.2 |
| 20260506145211 | 58 | 88 | 0.0 | 0.0 | 0.00 | 0.00 | 0.00 | 89 | 1012.2 |
| 20260506144825 | 60 | 88 | 0.0 | 0.0 | 0.00 | 0.00 | 0.00 | 89 | 1012.3 |
| 20260506144726 | 60 | 88 | 0.0 | 0.0 | 0.00 | 0.00 | 0.00 | 89 | 1012.3 |
| 20260506144716 | 59 | 88 | 0.0 | 0.0 | 0.00 | 0.00 | 0.00 | 89 | 1012.2 |
| 20260506144603 | 60 | 88 | 0.0 | 0.0 | 0.00 | 0.00 | 0.00 | 88 | 1012.8 |
| 20260506144335 | 60 | 88 | 0.0 | 0.0 | 0.00 | 0.00 | 0.00 | 89 | 1012.3 |
| 20260506144327 | 60 | 88 | 0.0 | 0.0 | 0.00 | 0.00 | 0.00 | 89 | 1012.4 |
| 20260506144320 | 60 | 88 | 0.0 | 0.0 | 0.00 | 0.00 | 0.00 | 89 | 1012.3 |
| 20260506144313 | 60 | 88 | 0.0 | 0.0 | 0.00 | 0.00 | 0.00 | 89 | 1012.4 |
| 20260506144307 | 60 | 88 | 0.0 | 0.0 | 0.00 | 0.00 | 0.00 | 89 | 1012.4 |
| 20260506144301 | 60 | 88 | 0.0 | 0.0 | 0.00 | 0.00 | 0.00 | 89 | 1012.4 |
| 20260506144254 | 60 | 88 | 0.0 | 0.0 | 0.00 | 0.00 | 0.00 | 89 | 1012.4 |
| 20260506144248 | 60 | 88 | 0.0 | 0.0 | 0.00 | 0.00 | 0.00 | 89 | 1012.5 |
| 20260506144242 | 60 | 88 | 0.0 | 0.0 | 0.00 | 0.00 | 0.00 | 89 | 1012.5 |
| 20260506144234 | 60 | 88 | 0.0 | 0.0 | 0.00 | 0.00 | 0.00 | 89 | 1012.6 |
| 20260506144228 | 60 | 88 | 0.0 | 0.0 | 0.00 | 0.00 | 0.00 | 89 | 1012.6 |
| 20260506144221 | 60 | 88 | 0.0 | 0.0 | 0.00 | 0.00 | 0.00 | 89 | 1012.7 |
| 20260506144214 | 60 | 88 | 0.0 | 0.0 | 0.00 | 0.00 | 0.00 | 88 | 1012.8 |
| 20260506144208 | 59 | 88 | 0.0 | 1.0 | 0.00 | 0.00 | 0.00 | 89 | 1012.3 |
| 20260506144202 | 59 | 88 | 0.0 | 1.0 | 0.00 | 0.00 | 0.00 | 89 | 1012.4 |
| 20260506144156 | 59 | 88 | 0.0 | 0.0 | 0.00 | 0.00 | 0.00 | 89 | 1012.3 |
| 20260506144150 | 59 | 88 | 0.0 | 0.0 | 0.00 | 0.00 | 0.00 | 89 | 1012.3 |
| 20260506144144 | 59 | 88 | 0.0 | 0.0 | 0.00 | 0.00 | 0.00 | 89 | 1012.3 |
| 20260506144136 | 59 | 88 | 0.0 | 0.0 | 0.00 | 0.00 | 0.00 | 89 | 1012.3 |
| 20260506144128 | 59 | 88 | 0.0 | 0.0 | 0.00 | 0.00 | 0.00 | 89 | 1012.3 |
| 20260506124301 | 60 | 88 | 0.0 | 0.0 | 0.00 | 0.00 | 0.00 | 88 | 1012.8 |
| 20260506123745 | 60 | 88 | 0.0 | 0.0 | 0.00 | 0.00 | 0.00 | 88 | 1013.0 |
| 20260506123237 | 60 | 88 | 0.0 | 0.0 | 0.00 | 0.00 | 0.00 | 87 | 1013.0 |
| 20260506122739 | 60 | 88 | 0.0 | 0.0 | 0.00 | 0.00 | 0.00 | 87 | 1013.2 |
| 20260506122456 | 60 | 88 | 0.0 | 0.0 | 0.00 | 0.00 | 0.00 | 87 | 1013.3 |
| 20260506121735 | 60 | 88 | 0.0 | 0.0 | 0.00 | 0.00 | 0.00 | 87 | 1013.4 |
| 20260506121233 | 60 | 88 | 0.0 | 0.0 | 0.00 | 0.00 | 0.00 | 87 | 1013.5 |
| 20260506120729 | 60 | 88 | 0.0 | 0.0 | 0.00 | 0.00 | 0.00 | 87 | 1013.5 |
| 20260506120209 | 60 | 88 | 0.0 | 0.0 | 0.00 | 0.00 | 0.00 | 87 | 1013.5 |
| 20260506115631 | 60 | 88 | 0.0 | 0.0 | 0.00 | 0.00 | 0.00 | 87 | 1013.5 |
| 20260506115130 | 60 | 88 | 0.0 | 0.0 | 0.00 | 0.00 | 0.00 | 87 | 1013.7 |
| 20260506114627 | 61 | 88 | 0.0 | 0.0 | 0.00 | 0.00 | 0.00 | 87 | 1013.7 |
| 20260506114101 | 61 | 88 | 0.0 | 0.0 | 0.00 | 0.00 | 0.00 | 87 | 1013.6 |
| 20260506113601 | 61 | 88 | 0.0 | 0.0 | 0.00 | 0.00 | 0.00 | 87 | 1013.7 |
| 20260506113040 | 61 | 88 | 0.0 | 0.0 | 0.00 | 0.00 | 0.00 | 87 | 1013.6 |
| 20260506112531 | 61 | 88 | 0.0 | 0.0 | 0.00 | 0.00 | 0.00 | 87 | 1013.7 |
| 20260506112009 | 61 | 88 | 0.0 | 0.0 | 0.00 | 0.00 | 0.00 | 87 | 1013.7 |
| 20260506111458 | 62 | 88 | 0.0 | 0.0 | 0.00 | 0.00 | 0.00 | 88 | 1013.8 |
| 20260506110941 | 62 | 88 | 0.0 | 0.0 | 0.00 | 0.00 | 0.00 | 88 | 1013.9 |
| 20260506110433 | 62 | 88 | 0.0 | 0.0 | 0.00 | 0.00 | 0.00 | 88 | 1013.8 |
| 20260506105913 | 62 | 88 | 0.0 | 0.0 | 0.00 | 0.00 | 0.00 | 88 | 1013.9 |
| 20260506105407 | 62 | 88 | 0.0 | 0.0 | 0.00 | 0.00 | 0.00 | 88 | 1013.9 |
| 20260506105126 | 62 | 88 | 0.0 | 0.0 | 0.00 | 0.00 | 0.00 | 88 | 1013.9 |
| 20260506104341 | 62 | 88 | 0.0 | 0.0 | 0.00 | 0.00 | 0.00 | 88 | 1013.9 |
| 20260506103835 | 62 | 88 | 0.0 | 0.0 | 0.00 | 0.00 | 0.00 | 88 | 1013.9 |
| 20260506103309 | 62 | 88 | 0.0 | 1.0 | 0.00 | 0.00 | 0.00 | 89 | 1014.0 |
| 20260506103031 | 62 | 88 | 0.0 | 0.0 | 0.00 | 0.00 | 0.00 | 89 | 1014.0 |
| 20260506102251 | 61 | 88 | 0.0 | 0.0 | 0.00 | 0.00 | 0.00 | 89 | 1014.0 |
| 20260506102007 | 61 | 88 | 0.0 | 0.0 | 0.00 | 0.00 | 0.00 | 89 | 1014.0 |
| 20260506101242 | 61 | 88 | 0.0 | 0.0 | 0.00 | 0.00 | 0.00 | 88 | 1014.0 |
| 20260506101003 | 61 | 88 | 0.0 | 0.0 | 0.00 | 0.00 | 0.00 | 87 | 1014.1 |
| 20260506100209 | 62 | 88 | 0.0 | 0.0 | 0.00 | 0.00 | 0.00 | 87 | 1014.1 |
| 20260506095924 | 62 | 88 | 0.0 | 0.0 | 0.00 | 0.00 | 0.00 | 86 | 1014.0 |
| 20260506095141 | 62 | 88 | 0.0 | 0.0 | 0.00 | 0.00 | 0.00 | 87 | 1014.0 |
| 20260506094643 | 62 | 88 | 0.0 | 0.0 | 0.00 | 0.00 | 0.00 | 87 | 1014.0 |
| 20260506094142 | 62 | 88 | 0.0 | 0.0 | 0.00 | 0.00 | 0.00 | 87 | 1014.1 |
| 20260506093631 | 62 | 88 | 0.0 | 0.0 | 0.00 | 0.00 | 0.00 | 86 | 1014.0 |
| 20260506093116 | 62 | 88 | 0.0 | 0.0 | 0.00 | 0.00 | 0.00 | 86 | 1014.0 |
| 20260506092602 | 62 | 88 | 0.0 | 0.0 | 0.00 | 0.00 | 0.00 | 86 | 1014.1 |
| 20260506092049 | 63 | 88 | 0.0 | 0.0 | 0.00 | 0.00 | 0.00 | 85 | 1014.0 |
| 20260506091534 | 63 | 88 | 0.0 | 0.0 | 0.00 | 0.00 | 0.00 | 85 | 1014.2 |
| 20260506091026 | 63 | 88 | 0.0 | 0.0 | 0.00 | 0.00 | 0.00 | 85 | 1014.2 |
| 20260506090510 | 63 | 88 | 0.0 | 1.0 | 0.00 | 0.00 | 0.00 | 85 | 1014.2 |
| 20260506090010 | 63 | 88 | 0.0 | 1.0 | 0.00 | 0.00 | 0.00 | 85 | 1014.3 |
| 20260506085726 | 63 | 88 | 0.0 | 0.0 | 0.00 | 0.00 | 0.00 | 84 | 1014.3 |
| 20260506084946 | 63 | 88 | 0.0 | 0.0 | 0.00 | 0.00 | 0.00 | 84 | 1014.3 |